Location: Maignaut
(43.8886°N, 0.4051°E)
Time: 19:57:17
(UTC+00:00)

Iridium 4 Rocket - Pass Details

Date: 17 January 2021
Orbit: 583 x 906 km, 86.9° (Epoch: 28 February)

Event Time Altitude Azimuth Distance (km) Brightness Sun altitude
Rises 19:08:57 0° 359° (N) 3,522 6.9 -24.8°
Reaches altitude 10° 19:11:29 10° 2° (N) 2,556 6.1 -25.2°
Enters shadow 19:15:41 47° 18° (NNE) 1,126 4.1 -26.0°
Exits shadow 19:23:28 - 172° (S) 2,686 6.3 -27.4°
Sets 19:24:55 0° 173° (S) 3,247 6.7 -27.6°
